Location: Cactus School
(34.5700°N, 118.0931°W)
Time: 02:43:04
(UTC-07:00)

Courier 1B - Pass Details

Date: 28 April 2024
Orbit: 962 x 1208 km, 28.3° (Epoch: 23 May)

Event Time Altitude Azimuth Distance (km) Brightness Sun altitude
Rises 22:21:47 0° 232° (SW) 4,064 10.8 -29.5°
Reaches altitude 10° 22:24:51 10° 223° (SW) 3,120 10.1 -30.0°
Enters shadow 22:26:31 17° 216° (SW) 2,654 9.6 -30.2°
